1507716000.21,52886,11.13,73860.0,1.07,-0.03,-0.03,0,*7A
1507716001.41,52887,11.13,73860.8,1.07,-0.03,0.05,0,*50
1507716002.62,52888,11.13,73866.8,1.07,-0.07,-0.03,0,*70
1507716003.82,52889,11.13,73868.8,1.07,-0.07,-0.07,0,*75
1507716005.0,52890,11.13,73864.8,1.05,-0.07,0.05,0,*50
1507716006.2,52891,11.13,73866.8,1.07,-0.07,-0.03,0,*78
1507716007.41,52892,11.13,73862.0,1.07,-0.07,-0.07,0,*7F
1507716008.61,52893,11.13,73862.0,1.07,-0.07,-0.07,0,*7E
1507716009.81,52894,11.13,73862.0,1.07,-0.07,0.05,0,*56
1507716010.99,52895,11.13,73856.0,1.05,-0.07,0.05,0,*55
1507716012.19,52896,11.13,73860.5,1.07,-0.03,-0.03,0,*7B
1507716013.4,52897,11.13,73860.3,1.07,-0.07,-0.03,0,*7E
1507716014.6,52898,11.13,73856.8,1.07,-0.03,0.05,0,*5E
1507716015.81,52899,11.13,73860.8,1.07,-0.03,0.05,0,*5F
1507716017.01,52900,11.13,73858.3,1.07,0.05,-0.03,0,*5E
1507716018.2,52901,11.13,73848.3,1.09,0.01,0.09,0,*72
1507716019.39,52902,11.13,73852.8,1.09,0.09,0.09,0,*79
1507716020.61,52903,11.13,73864.8,1.09,0.09,0.13,0,*43
1507716021.8,52904,11.13,73870.8,1.09,0.09,0.09,0,*7F
1507716023.01,52905,11.13,73870.8,1.09,0.09,0.13,0,*45
1507716024.21,52906,11.13,73874.5,1.09,0.09,0.09,0,*7D
1507716025.41,52907,11.13,73874.3,1.07,0.05,0.09,0,*7E
1507716026.61,52908,11.13,73870.3,1.07,0.05,0.05,0,*7D
1507716027.81,52909,11.13,73860.5,1.07,-0.03,0.05,0,*57
1507716029.02,52910,11.13,73856.0,1.07,-0.03,-0.03,0,*74
1507716030.21,52911,11.13,73858.3,1.09,0.01,0.09,0,*73
1507716031.42,52912,11.13,73854.0,1.09,0.09,0.13,0,*43
1507716032.64,52913,11.13,73854.8,1.11,0.13,0.25,0,*75
1507716033.82,52914,11.13,73852.5,1.09,0.01,0.09,0,*76
1507716035.02,52915,11.13,73856.8,1.09,0.09,0.09,0,*7F
1507716036.23,52916,11.13,73856.5,1.11,0.13,0.13,0,*75
1507716037.43,52917,11.13,73854.8,1.09,0.09,0.09,0,*7D
1507716038.65,52918,11.13,73854.5,1.09,0.09,0.21,0,*48
1507716039.87,52919,11.13,73856.3,1.09,0.09,0.13,0,*48
1507716041.08,52920,11.13,73864.3,1.11,0.13,0.17,0,*74
1507716042.3,52921,11.13,73870.8,1.11,0.13,0.13,0,*71
1507716043.51,52922,11.13,73866.8,1.11,0.17,0.17,0,*72
1507716044.73,52923,11.13,73864.5,1.09,0.09,0.21,0,*40
1507716045.98,52924,11.13,73864.8,1.09,0.13,0.21,0,*7C
1507716047.22,52925,11.13,73868.0,1.09,0.13,0.21,0,*7D
1507716048.46,52926,11.13,73870.8,1.09,0.13,0.13,0,*7F
1507716049.7,52927,11.13,73874.5,1.09,0.13,0.21,0,*7F
1507716050.92,52928,11.19,73872.3,1.09,0.09,0.13,0,*4A
1507716052.14,52929,11.13,73868.0,1.09,0.09,0.13,0,*4B
1507716053.35,52930,11.13,73872.5,1.09,0.09,0.13,0,*43
1507716054.57,52931,11.13,73868.0,1.09,0.09,0.13,0,*42
1507716055.78,52932,11.13,73870.8,1.11,0.13,0.17,0,*77
1507716057.0,52933,11.13,73870.8,1.09,0.09,0.13,0,*40
1507716058.21,52934,11.13,73870.8,1.09,0.09,0.13,0,*47
1507716059.37,52935,11.13,73868.5,1.11,0.01,0.01,0,*74
1507716060.61,52936,11.13,73874.8,1.09,0.13,0.25,0,*7B
1507716061.84,52937,11.13,73870.3,1.09,0.09,0.21,0,*45
1507716063.03,52938,11.13,73874.3,1.09,0.09,0.09,0,*70
1507716064.22,52939,11.13,73874.8,1.09,0.09,0.09,0,*71
1507716065.44,52940,11.13,73874.0,1.11,0.13,0.13,0,*76
1507716066.61,52941,11.13,73872.3,1.11,0.09,0.09,0,*77
1507716067.8,52942,11.19,73878.3,1.09,0.09,0.09,0,*7D
1507716068.99,52943,11.13,73874.0,1.09,0.01,0.09,0,*74
1507716070.18,52944,11.13,73874.0,1.09,0.01,0.09,0,*73
1507716071.37,52945,11.13,73868.5,1.09,0.09,0.09,0,*7A
1507716072.59,52946,11.13,73866.3,1.09,0.09,0.13,0,*42
1507716073.83,52947,11.13,73866.0,1.09,0.13,0.13,0,*78
1507716075.04,52948,11.13,73866.0,1.11,0.13,0.17,0,*7A
1507716076.26,52949,11.13,73866.5,1.09,0.09,0.13,0,*4D
1507716077.47,52950,11.13,73864.8,1.09,0.01,0.13,0,*4D
1507716078.66,52951,11.13,73864.3,1.09,0.09,0.09,0,*7F
1507716079.87,52952,11.13,73856.3,1.11,0.13,0.17,0,*71
1507716081.09,52953,11.13,73852.8,1.11,0.13,0.17,0,*70
1507716082.3,52954,11.13,73860.3,1.09,0.01,0.13,0,*49
1507716083.51,52955,11.13,73864.5,1.11,0.13,0.17,0,*76
1507716084.73,52956,11.13,73870.0,1.11,0.13,0.25,0,*74
1507716085.98,52957,11.13,73874.8,1.09,0.21,0.21,0,*79
1507716087.19,52958,11.13,73872.0,1.11,0.25,0.17,0,*7E
1507716088.41,52959,11.13,73880.3,1.11,0.17,0.17,0,*7E
1507716089.63,52960,11.13,73882.8,1.11,0.25,0.25,0,*74
1507716090.84,52961,11.13,73880.5,1.11,0.13,0.13,0,*75
1507716092.06,52962,11.13,73880.3,1.11,0.13,0.25,0,*73
1507716093.27,52963,11.13,73884.5,1.11,0.17,0.25,0,*76
1507716094.49,52964,11.13,73878.8,1.11,0.25,0.29,0,*7C
1507716095.71,52965,11.13,73882.3,1.11,0.21,0.25,0,*75
1507716096.93,52966,11.13,73884.8,1.11,0.25,0.25,0,*72
1507716098.15,52967,11.13,73888.3,1.11,0.25,0.29,0,*7F
1507716099.37,52968,11.13,73890.5,1.11,0.17,0.29,0,*71
1507716100.59,52969,11.13,73878.5,1.11,0.25,0.29,0,*71
1507716101.8,52970,11.13,73876.3,1.11,0.17,0.25,0,*74
1507716103.02,52971,11.13,73872.8,1.11,0.13,0.25,0,*71
1507716104.21,52972,11.13,73874.3,1.11,0.05,0.17,0,*44
1507716105.45,52973,11.13,73876.5,1.13,0.13,0.17,0,*70
1507716106.65,52974,11.13,73874.8,1.11,0.13,0.05,0,*46
1507716107.84,52975,11.13,73870.0,1.11,0.13,0.05,0,*47
1507716109.03,52976,11.13,73870.5,1.11,0.13,0.05,0,*44
1507716110.2,52977,11.13,73870.3,1.11,0.01,0.05,0,*76
1507716111.36,52978,11.13,73870.5,1.11,0.01,0.05,0,*79
1507716112.54,52979,11.13,73868.8,1.11,-0.07,0.05,0,*53
1507716113.73,52980,11.13,73870.3,1.11,-0.07,0.13,0,*62
1507716114.9,52981,11.13,73866.0,1.11,0.01,0.05,0,*7F
1507716116.06,52982,11.13,73874.0,1.11,0.01,0.05,0,*7C
1507716117.26,52983,11.13,73878.5,1.13,0.05,0.05,0,*7B
1507716118.46,52984,11.13,73872.5,1.13,0.05,0.05,0,*7C
1507716119.66,52985,11.13,73868.3,1.13,-0.07,-0.07,0,*7D
1507716120.84,52986,11.13,73862.3,1.11,-0.11,0.01,0,*60
1507716122.02,52987,11.13,73860.8,1.11,-0.07,-0.07,0,*7D
1507716123.22,52988,11.13,73858.0,1.13,-0.07,-0.07,0,*70
1507716124.42,52989,11.13,73850.0,1.13,-0.07,0.01,0,*5A
1507716125.62,52990,11.13,73850.8,1.13,-0.07,-0.07,0,*79
1507716126.86,52991,11.13,73848.8,1.13,-0.23,-0.19,0,*71
1507716128.06,52992,11.13,73848.5,1.13,-0.07,0.01,0,*50
1507716129.26,52993,11.13,73856.3,1.13,-0.07,-0.07,0,*7A
1507716130.45,52994,11.13,73844.3,1.11,-0.11,-0.07,0,*48
1507716131.64,52995,11.13,73838.0,1.11,-0.19,-0.11,0,*76
1507716132.85,52996,11.13,73852.0,1.11,-0.23,-0.19,0,*74
1507716134.03,52997,11.19,73852.5,1.11,-0.07,0.05,0,*53
1507716135.2,52998,11.13,73860.0,1.11,-0.07,0.01,0,*58
1507716136.37,52999,11.13,73872.8,1.11,-0.07,-0.07,0,*72
1507716137.55,53000,11.13,73858.8,1.11,-0.07,-0.07,0,*7A
1507716138.76,53001,11.13,73864.3,1.09,-0.03,-0.11,0,*41
1507716139.95,53002,11.13,73866.8,1.13,0.01,0.01,0,*7A
1507716141.12,53003,11.13,73864.5,1.11,0.05,0.05,0,*79
1507716142.31,53004,11.13,73872.8,1.09,0.01,-0.03,0,*58
1507716143.48,53005,11.13,73874.8,1.11,-0.07,0.01,0,*54
1507716144.68,53006,11.13,73872.0,1.09,-0.03,0.01,0,*5A
1507716145.87,53007,11.13,73868.5,1.13,-0.07,0.01,0,*54
1507716147.05,53008,11.13,73876.0,1.15,0.05,0.09,0,*7A
1507716148.25,53009,11.13,73872.8,1.13,-0.07,0.05,0,*5E
1507716149.44,53010,11.13,73874.5,1.13,0.01,0.01,0,*79
1507716150.62,53011,11.13,73878.0,1.13,0.01,0.01,0,*78
1507716151.82,53012,11.13,73876.0,1.13,0.01,0.05,0,*7F
1507716152.98,53013,11.13,73874.3,1.11,0.01,0.05,0,*7C
1507716154.18,53014,11.13,73868.8,1.11,-0.07,0.13,0,*67
1507716155.36,53015,11.19,73874.5,1.11,0.01,0.13,0,*4D
1507716156.53,53016,11.13,73872.0,1.11,0.01,0.05,0,*79
1507716157.72,53017,11.13,73870.5,1.11,0.05,0.13,0,*4B
1507716158.89,53018,11.13,73872.5,1.11,0.05,0.05,0,*73
1507716160.06,53019,11.13,73874.5,1.11,0.05,0.05,0,*72
1507716161.25,53020,11.13,73874.3,1.11,0.01,0.13,0,*4B
1507716162.42,53021,11.13,73872.0,1.11,0.05,0.05,0,*79
1507716163.62,53022,11.13,73868.5,1.11,0.13,0.05,0,*4D
1507716164.81,53023,11.13,73868.5,1.11,-0.07,0.13,0,*63
1507716166.01,53024,11.13,73866.5,1.11,0.05,0.13,0,*4B
1507716167.19,53025,11.13,73868.3,1.11,0.01,0.13,0,*4E
1507716168.38,53026,11.13,73870.8,1.11,0.01,0.13,0,*4D
1507716169.54,53027,11.13,73872.3,1.11,0.01,0.05,0,*7B
1507716170.72,53028,11.13,73872.3,1.11,0.05,0.05,0,*70
1507716171.9,53029,11.13,73882.3,1.11,0.01,0.13,0,*42
1507716173.09,53030,11.13,73880.5,1.11,0.01,0.13,0,*4A
1507716174.26,53031,11.13,73878.8,1.11,0.05,0.05,0,*78
1507716175.45,53032,11.13,73872.8,1.11,0.01,0.13,0,*48
1507716176.64,53033,11.13,73872.3,1.13,0.01,0.05,0,*7C
1507716177.82,53034,11.13,73872.5,1.11,0.01,0.13,0,*4E
1507716179.02,53035,11.13,73874.3,1.11,0.05,0.13,0,*4B
1507716180.22,53036,11.13,73872.8,1.13,0.05,0.05,0,*7D
1507716181.39,53037,11.13,73870.8,1.11,0.05,0.05,0,*7E
1507716182.58,53038,11.13,73870.8,1.09,-0.03,0.01,0,*57
1507716183.75,53039,11.13,73864.8,1.11,0.01,0.05,0,*74
1507716184.91,53040,11.13,73868.0,1.11,0.01,0.05,0,*7A
1507716186.08,53041,11.13,73866.0,1.11,0.01,0.05,0,*7B
1507716187.24,53042,11.13,73870.5,1.11,0.01,0.05,0,*78
1507716188.41,53043,11.13,73872.0,1.11,0.01,0.05,0,*79
1507716189.6,53044,11.13,73872.8,1.11,0.05,0.13,0,*4D
1507716190.79,53045,11.13,73876.0,1.11,0.05,0.13,0,*4C
1507716191.97,53046,11.13,73878.8,1.11,0.05,0.05,0,*78
1507716193.16,53047,11.13,73882.0,1.11,0.05,0.13,0,*4E
1507716194.33,53048,11.13,73880.8,1.11,0.05,0.05,0,*76
1507716195.49,53049,11.13,73886.3,1.11,0.01,0.05,0,*73
1507716196.69,53050,11.13,73886.3,1.11,0.05,0.13,0,*48
1507716197.86,53051,11.13,73882.8,1.11,0.05,0.05,0,*7E
1507716199.03,53052,11.13,73886.0,1.11,0.05,0.05,0,*7D
1507716200.21,53053,11.13,73886.5,1.09,0.01,0.01,0,*75
1507716201.41,53054,11.13,73884.8,1.11,0.05,0.13,0,*4C
1507716202.58,53055,11.13,73884.5,1.11,0.05,0.05,0,*7A
1507716203.74,53056,11.13,73884.0,1.11,0.01,0.05,0,*7D
1507716204.92,53057,11.13,73882.5,1.11,0.05,0.05,0,*78
1507716206.09,53058,11.13,73884.5,1.11,0.05,0.05,0,*77
1507716207.31,53059,11.13,73886.5,1.13,0.05,0.13,0,*43
1507716208.5,53060,11.13,73880.0,1.13,-0.07,0.01,0,*55
1507716209.67,53061,11.13,73878.0,1.11,0.01,0.05,0,*79
1507716210.87,53062,11.13,73876.5,1.09,-0.03,0.01,0,*58
1507716212.06,53063,11.13,73880.0,1.11,0.05,0.13,0,*48
1507716213.22,53064,11.13,73876.3,1.11,0.01,0.05,0,*7C
1507716214.41,53065,11.13,73876.3,1.11,0.01,0.13,0,*4A
1507716215.61,53066,11.13,73880.0,1.09,-0.03,0.01,0,*5C
1507716216.8,53067,11.13,73870.8,1.09,-0.03,0.01,0,*5D
1507716217.97,53068,11.13,73858.3,1.11,0.01,0.05,0,*70
1507716219.13,53069,11.13,73848.5,1.11,0.01,0.05,0,*71
1507716220.29,53070,11.13,73850.0,1.11,0.01,0.01,0,*7D
1507716221.48,53071,11.13,73858.3,1.11,0.01,0.13,0,*4F
1507716222.67,53072,11.13,73856.5,1.11,0.05,0.13,0,*48
1507716223.86,53073,11.13,73858.3,1.11,0.13,0.05,0,*49
1507716225.04,53074,11.13,73860.0,1.11,0.05,0.05,0,*79
1507716226.2,53075,11.13,73856.8,1.11,0.01,0.05,0,*7C
1507716227.37,53076,11.13,73854.5,1.11,0.01,0.05,0,*7F
1507716228.53,53077,11.13,73866.3,1.11,0.01,0.05,0,*7E
1507716229.74,53078,11.13,73870.8,1.09,-0.11,-0.03,0,*4F
1507716230.94,53079,11.13,73870.8,1.09,-0.03,0.01,0,*52
1507716232.11,53080,11.13,73868.5,1.11,0.05,0.05,0,*72
1507716233.28,53081,11.13,73874.0,1.11,0.05,0.05,0,*73
1507716234.45,53082,11.13,73872.8,1.11,0.05,0.05,0,*70
1507716235.64,53083,11.13,73872.3,1.11,0.05,0.13,0,*46
1507716236.83,53084,11.13,73880.3,1.09,0.01,0.09,0,*77
1507716238.03,53085,11.13,73880.3,1.11,0.05,0.13,0,*40
1507716239.19,53086,11.13,73882.3,1.11,0.01,0.05,0,*70
1507716240.36,53087,11.13,73884.5,1.11,0.05,0.01,0,*71
1507716241.56,53088,11.13,73880.5,1.09,-0.03,-0.03,0,*73
1507716242.72,53089,11.13,73878.3,1.11,0.01,0.01,0,*7B
1507716243.93,53090,11.13,73874.8,1.09,-0.11,-0.03,0,*49
1507716245.11,53091,11.13,73874.0,1.11,-0.07,-0.07,0,*72
1507716246.32,53092,11.13,73864.8,1.09,-0.03,-0.11,0,*4B
1507716247.49,53093,11.13,73864.3,1.11,-0.07,0.01,0,*5B
1507716248.7,53094,11.13,73862.0,1.09,-0.11,-0.03,0,*4D
1507716249.9,53095,11.13,73852.8,1.09,-0.15,-0.07,0,*4C
1507716251.11,53096,11.13,73856.5,1.09,-0.15,-0.15,0,*7C
1507716252.37,53097,11.13,73858.5,1.09,-0.23,-0.23,0,*7D
1507716253.61,53098,11.13,73854.0,1.09,-0.23,-0.19,0,*7B
1507716254.8,53099,11.13,73862.0,1.11,-0.19,-0.11,0,*72
1507716256.06,53100,11.13,73866.0,1.09,-0.23,-0.23,0,*72
1507716257.29,53101,11.13,73862.0,1.09,-0.23,-0.19,0,*7A
1507716258.55,53102,11.13,73866.0,1.09,-0.27,-0.23,0,*74
1507716259.81,53103,11.13,73860.3,1.09,-0.23,-0.23,0,*71
1507716261.02,53104,11.13,73860.3,1.09,-0.15,-0.11,0,*72
1507716262.22,53105,11.13,73856.3,1.11,-0.19,-0.11,0,*76
1507716263.43,53106,11.13,73862.5,1.09,-0.15,-0.11,0,*70
1507716264.67,53107,11.13,73870.5,1.09,-0.23,-0.15,0,*70
1507716265.88,53108,11.13,73872.0,1.09,-0.15,-0.11,0,*7E
1507716267.1,53109,11.13,73874.8,1.09,-0.15,-0.11,0,*7F
1507716268.31,53110,11.13,73872.5,1.09,-0.15,-0.11,0,*77
1507716269.57,53111,11.13,73874.0,1.09,-0.23,-0.23,0,*72
1507716270.81,53112,11.13,73856.8,1.09,-0.23,-0.15,0,*74
1507716272.06,53113,11.13,73862.8,1.09,-0.27,-0.23,0,*74
1507716273.3,53114,11.13,73858.5,1.09,-0.27,-0.15,0,*76
1507716274.56,53115,11.13,73862.8,1.09,-0.23,-0.23,0,*76
1507716275.79,53116,11.13,73864.0,1.09,-0.27,-0.15,0,*74
1507716277.03,53117,11.13,73872.5,1.09,-0.23,-0.15,0,*71
1507716278.27,53118,11.13,73864.8,1.09,-0.23,-0.15,0,*7E
1507716279.5,53119,11.13,73868.8,1.09,-0.15,-0.23,0,*7F
1507716280.72,53120,11.13,73870.3,1.09,-0.15,-0.15,0,*70
1507716281.93,53121,11.13,73874.3,1.09,-0.15,-0.11,0,*75
1507716283.14,53122,11.13,73878.3,1.09,-0.15,-0.11,0,*76
1507716284.4,53123,11.13,73862.5,1.09,-0.23,-0.23,0,*73
1507716285.66,53124,11.13,73854.5,1.09,-0.23,-0.23,0,*74
1507716286.87,53125,11.19,73854.8,1.11,-0.23,-0.19,0,*75
1507716288.08,53126,11.13,73856.3,1.09,-0.37,-0.33,0,*72
1507716289.31,53127,11.13,73868.8,1.09,-0.33,-0.27,0,*72
1507716290.54,53128,11.13,73868.5,1.09,-0.33,-0.27,0,*7D
1507716291.77,53129,11.13,73868.3,1.09,-0.33,-0.27,0,*7C
1507716293.01,53130,11.13,73866.5,1.09,-0.27,-0.33,0,*74
1507716294.22,53131,11.13,73864.8,1.09,-0.33,-0.33,0,*70
1507716295.43,53132,11.13,73856.0,1.07,-0.37,-0.29,0,*72
1507716296.65,53133,11.13,73852.3,1.07,-0.41,-0.41,0,*7C
1507716297.87,53134,11.13,73858.3,1.07,-0.41,-0.29,0,*75
1507716299.08,53135,11.13,73862.3,1.07,-0.37,-0.29,0,*75
1507716300.31,53136,11.13,73866.8,1.07,-0.29,-0.27,0,*77
1507716301.55,53137,11.13,73876.0,1.07,-0.29,-0.27,0,*76
1507716302.75,53138,11.13,73878.5,1.05,-0.29,-0.27,0,*7B
1507716303.99,53139,11.13,73862.0,1.07,-0.29,-0.27,0,*78
1507716305.22,53140,11.13,73856.5,1.05,-0.27,-0.27,0,*7A
1507716306.46,53141,11.13,73860.8,1.07,-0.27,-0.19,0,*74
1507716307.7,53142,11.13,73864.0,1.07,-0.27,-0.19,0,*77
1507716308.93,53143,11.13,73866.3,1.07,-0.29,-0.27,0,*75
1507716310.17,53144,11.13,73870.8,1.07,-0.29,-0.27,0,*72
1507716311.38,53145,11.13,73870.8,1.05,-0.27,-0.19,0,*72
1507716312.64,53146,11.13,73868.8,1.07,-0.27,-0.27,0,*7E
1507716313.86,53147,11.13,73868.8,1.07,-0.19,-0.19,0,*7F
1507716315.12,53148,11.13,73872.3,1.07,-0.27,-0.27,0,*70
1507716316.36,53149,11.13,73872.8,1.07,-0.29,-0.27,0,*7F
1507716317.6,53150,11.13,73882.5,1.07,-0.27,-0.19,0,*74
1507716318.79,53151,11.13,73880.3,1.05,-0.19,-0.19,0,*7A
1507716319.98,53152,11.13,73876.5,1.05,-0.19,-0.15,0,*75
1507716321.2,53153,11.13,73882.5,1.07,-0.15,-0.15,0,*7A
1507716322.41,53154,11.13,73880.5,1.07,-0.15,-0.15,0,*7D
1507716323.64,53155,11.13,73876.8,1.07,-0.19,-0.15,0,*70
1507716324.88,53156,11.13,73876.5,1.07,-0.27,-0.19,0,*72
1507716326.11,53157,11.13,73876.0,1.07,-0.15,-0.27,0,*7F
1507716327.33,53158,11.13,73876.0,1.07,-0.19,-0.19,0,*71
1507716328.55,53159,11.13,73878.3,1.05,-0.27,-0.15,0,*73
1507716329.76,53160,11.13,73878.3,1.07,-0.15,-0.07,0,*49
1507716330.97,53161,11.13,73876.3,1.07,-0.15,-0.07,0,*48
1507716332.18,53162,11.13,73874.3,1.07,-0.15,-0.07,0,*4B
1507716333.39,53163,11.13,73882.3,1.07,-0.15,-0.07,0,*4A
1507716334.61,53164,11.13,73880.0,1.07,-0.15,-0.15,0,*7E
1507716335.81,53165,11.13,73880.0,1.07,-0.07,-0.07,0,*7F
1507716337.03,53166,11.13,73882.5,1.07,-0.15,-0.15,0,*7C
1507716338.24,53167,11.13,73884.8,1.07,-0.07,-0.15,0,*4E
1507716339.45,53168,11.19,73880.3,1.07,-0.15,-0.03,0,*45
1507716340.63,53169,11.13,73874.8,1.05,-0.07,-0.07,0,*71
1507716341.84,53170,11.13,73874.5,1.07,-0.15,-0.07,0,*48
1507716343.04,53171,11.13,73874.5,1.07,-0.07,-0.07,0,*7A
1507716344.25,53172,11.19,73878.3,1.07,-0.15,-0.07,0,*4A
1507716345.46,53173,11.13,73872.5,1.07,-0.07,-0.07,0,*78
1507716346.66,53174,11.13,73876.8,1.07,-0.07,-0.03,0,*7B
1507716347.87,53175,11.13,73878.8,1.07,-0.07,-0.03,0,*7A
1507716349.07,53176,11.13,73880.3,1.07,-0.07,0.05,0,*52
1507716350.27,53177,11.13,73880.5,1.07,-0.03,0.05,0,*57
1507716351.48,53178,11.19,73884.8,1.07,-0.03,0.05,0,*58
1507716352.68,53179,11.13,73880.8,1.07,-0.03,-0.03,0,*72
1507716353.87,53180,11.13,73872.5,1.09,0.01,0.09,0,*72
1507716355.06,53181,11.13,73878.3,1.09,0.09,0.01,0,*73
1507716356.25,53182,11.13,73874.5,1.09,0.01,0.09,0,*70
1507716357.44,53183,11.13,73874.0,1.09,0.01,0.09,0,*71
1507716358.62,53184,11.13,73872.0,1.09,0.01,0.09,0,*76
1507716359.79,53185,11.13,73872.3,1.11,0.01,0.09,0,*7E
1507716360.97,53186,11.13,73878.5,1.09,0.01,0.01,0,*7C
1507716362.16,53187,11.13,73880.0,1.09,0.01,0.09,0,*75
1507716363.35,53188,11.13,73878.8,1.09,0.01,0.09,0,*7A
1507716364.53,53189,11.13,73872.8,1.09,0.01,0.01,0,*73
1507716365.75,53190,11.13,73874.8,1.09,-0.11,-0.11,0,*7B
1507716366.97,53191,11.13,73864.5,1.07,-0.19,-0.15,0,*78
1507716368.17,53192,11.13,73862.0,1.09,-0.03,-0.03,0,*79
1507716369.38,53193,11.13,73862.0,1.09,-0.11,-0.03,0,*4B
1507716370.58,53194,11.13,73862.8,1.09,-0.03,0.01,0,*50
1507716371.78,53195,11.13,73860.5,1.07,0.05,-0.03,0,*5B
1507716372.96,53196,11.13,73860.0,1.09,0.01,0.01,0,*7D
1507716374.15,53197,11.19,73866.0,1.09,0.01,0.01,0,*7C
1507716375.33,53198,11.13,73860.8,1.09,0.01,0.09,0,*7B
1507716376.53,53199,11.19,73864.3,1.09,0.09,0.09,0,*72
1507716377.72,53200,11.13,73862.8,1.09,0.09,0.09,0,*71
1507716378.91,53201,11.13,73864.0,1.09,0.01,0.09,0,*78
1507716380.1,53202,11.13,73864.8,1.09,0.01,0.09,0,*7B
1507716381.29,53203,11.13,73874.3,1.09,0.09,0.09,0,*72
1507716382.46,53204,11.19,73876.8,1.11,0.05,0.05,0,*7C
1507716383.65,53205,11.19,73878.0,1.09,0.01,0.01,0,*74
1507716384.84,53206,11.13,73874.3,1.11,0.05,0.13,0,*49
1507716386.03,53207,11.13,73864.8,1.09,0.01,0.09,0,*7E
1507716387.24,53208,11.19,73874.0,1.11,0.13,0.13,0,*70
1507716388.43,53209,11.13,73868.5,1.09,0.01,0.01,0,*78
1507716389.62,53210,11.13,73884.0,1.09,-0.03,0.01,0,*5F
1507716390.81,53211,11.13,73852.5,1.11,0.05,0.13,0,*4F
1507716392.01,53212,11.13,73856.8,1.11,0.05,0.13,0,*4C
1507716393.2,53213,11.13,73860.0,1.11,0.05,0.13,0,*4D
1507716394.39,53214,11.13,73862.8,1.11,0.01,0.13,0,*4E
1507716395.56,53215,11.19,73864.5,1.11,0.05,0.05,0,*7C
1507716396.75,53216,11.13,73850.8,1.11,0.05,0.13,0,*48
1507716397.95,53217,11.13,73856.0,1.09,-0.03,-0.03,0,*77
1507716399.15,53218,11.13,73860.8,1.11,0.05,0.13,0,*46
1507716400.31,53219,11.13,73862.3,1.11,0.01,0.05,0,*74
1507716401.48,53220,11.19,73856.5,1.11,0.01,0.05,0,*7E
1507716402.67,53221,11.13,73858.8,1.11,0.05,0.13,0,*4C
1507716403.86,53222,11.13,73856.8,1.11,0.05,0.13,0,*4F
1507716405.06,53223,11.13,73858.0,1.11,0.05,0.13,0,*4E
1507716406.27,53224,11.13,73860.3,1.11,0.13,0.17,0,*7A
1507716407.49,53225,11.13,73868.3,1.11,0.13,0.17,0,*7B
1507716408.7,53226,11.19,73868.8,1.11,0.13,0.17,0,*78
1507716409.89,53227,11.13,73852.8,1.11,0.05,0.17,0,*4E
1507716411.11,53228,11.13,73856.0,1.11,0.13,0.17,0,*76
1507716412.32,53229,11.13,73866.0,1.11,0.13,0.13,0,*73
1507716413.52,53230,11.13,73866.5,1.11,0.05,0.13,0,*4C
1507716414.73,53231,11.13,73866.0,1.11,0.13,0.17,0,*7E
1507716415.95,53232,11.13,73868.8,1.11,0.13,0.17,0,*7D
1507716417.19,53233,11.13,73868.5,1.13,0.13,0.17,0,*7E
1507716418.41,53234,11.13,73866.0,1.13,0.05,0.13,0,*4A
1507716419.63,53235,11.13,73868.3,1.13,0.05,0.13,0,*4B
1507716420.84,53236,11.13,73866.8,1.11,0.13,0.13,0,*7D
1507716422.06,53237,11.13,73868.5,1.13,0.05,0.13,0,*49
1507716423.25,53238,11.13,73864.0,1.11,0.05,0.13,0,*44
1507716424.42,53239,11.13,73870.3,1.11,0.05,0.01,0,*76
1507716425.66,53240,11.13,73876.5,1.13,0.13,0.13,0,*7E
1507716426.9,53241,11.13,73868.3,1.13,0.13,0.13,0,*7F
1507716428.12,53242,11.13,73864.3,1.13,0.05,0.13,0,*4B
1507716429.34,53243,11.13,73866.0,1.13,0.13,0.05,0,*4A
1507716430.58,53244,11.13,73880.0,1.13,0.13,0.13,0,*7A
1507716431.8,53245,11.19,73882.8,1.13,0.05,0.13,0,*4C
1507716433.0,53246,11.19,73880.0,1.11,0.05,0.13,0,*4D
1507716434.19,53247,11.13,73878.0,1.11,0.05,0.13,0,*4C
1507716435.4,53248,11.13,73870.5,1.11,0.13,0.17,0,*70
1507716436.65,53249,11.13,73868.0,1.13,0.13,0.13,0,*77
1507716437.89,53250,11.13,73862.3,1.13,0.13,0.13,0,*7F
1507716439.11,53251,11.19,73864.5,1.13,0.05,0.13,0,*49
1507716440.32,53252,11.13,73864.0,1.11,0.13,0.13,0,*7F
1507716441.54,53253,11.13,73860.0,1.11,0.13,0.17,0,*7A
1507716442.75,53254,11.13,73854.5,1.11,0.13,0.13,0,*79
1507716443.92,53255,11.13,73850.8,1.11,0.05,0.05,0,*78
1507716445.12,53256,11.19,73842.3,1.13,0.05,0.05,0,*79
1507716446.34,53257,11.13,73838.5,1.13,0.05,0.13,0,*4F
1507716447.54,53258,11.13,73854.5,1.13,0.05,0.05,0,*77
1507716448.73,53259,11.13,73854.5,1.13,0.01,0.05,0,*72
1507716449.93,53260,11.13,73858.8,1.13,0.05,0.05,0,*7C
1507716451.13,53261,11.19,73864.8,1.13,-0.07,0.05,0,*52
1507716452.3,53262,11.13,73880.8,1.11,-0.07,0.01,0,*57
1507716453.46,53263,11.13,73884.5,1.11,0.01,0.01,0,*7D
1507716454.66,53264,11.13,73882.5,1.11,-0.07,0.13,0,*62
1507716455.85,53265,11.13,73884.8,1.11,0.05,0.13,0,*4C
1507716457.07,53266,11.13,73876.8,1.13,0.05,0.13,0,*4D
1507716458.27,53267,11.13,73872.8,1.13,0.05,0.05,0,*7B
1507716459.47,53268,11.13,73880.5,1.13,0.05,0.05,0,*74
1507716460.64,53269,11.13,73874.3,1.11,-0.07,0.01,0,*5C
1507716461.83,53270,11.13,73864.5,1.13,0.01,0.05,0,*79
1507716463.02,53271,11.13,73864.5,1.13,0.01,0.05,0,*78
1507716464.24,53272,11.13,73870.0,1.13,-0.07,0.13,0,*67
1507716465.43,53273,11.13,73878.5,1.13,0.01,0.05,0,*7A
1507716466.65,53274,11.13,73882.3,1.13,0.01,0.13,0,*4A
1507716467.86,53275,11.13,73878.5,1.13,0.05,0.13,0,*4F
1507716469.06,53276,11.19,73878.5,1.11,0.05,0.13,0,*4E
1507716470.28,53277,11.13,73880.8,1.13,0.05,0.13,0,*4D
1507716471.5,53278,11.13,73884.8,1.13,0.05,0.13,0,*42
1507716472.69,53279,11.13,73884.5,1.13,0.05,0.05,0,*74
1507716473.92,53280,11.19,73884.0,1.13,0.13,0.05,0,*45
1507716475.09,53281,11.13,73882.0,1.11,0.05,0.05,0,*71
1507716476.3,53282,11.19,73882.0,1.11,0.13,0.13,0,*72
1507716477.47,53283,11.13,73872.0,1.11,0.05,0.05,0,*73
1507716478.69,53284,11.19,73866.0,1.11,0.13,0.13,0,*74
1507716479.86,53285,11.13,73850.3,1.11,0.05,0.05,0,*75
1507716481.05,53286,11.19,73848.0,1.11,0.13,0.05,0,*41
1507716482.25,53287,11.13,73854.3,1.13,0.05,0.05,0,*75
1507716483.46,53288,11.13,73846.8,1.13,0.01,0.13,0,*49
1507716484.65,53289,11.19,73848.3,1.13,0.01,0.05,0,*7F
1507716485.86,53290,11.13,73848.8,1.13,-0.07,-0.07,0,*73
1507716487.03,53291,11.13,73848.3,1.11,-0.07,-0.07,0,*70
1507716488.28,53292,11.13,73852.5,1.13,-0.23,-0.11,0,*70
1507716489.49,53293,11.13,73860.5,1.13,-0.11,-0.07,0,*47
1507716490.71,53294,11.19,73868.0,1.13,-0.11,-0.19,0,*7F
1507716491.9,53295,11.13,73874.0,1.13,-0.07,0.01,0,*5D
1507716493.1,53296,11.13,73872.3,1.13,0.01,-0.07,0,*5E
1507716494.3,53297,11.13,73878.0,1.13,-0.07,0.01,0,*5F
1507716495.5,53298,11.19,73878.0,1.13,-0.07,0.05,0,*54
1507716496.68,53299,11.19,73872.8,1.13,0.01,0.01,0,*7A
1507716497.85,53300,11.13,73878.3,1.11,0.01,0.05,0,*7D
1507716499.03,53301,11.19,73882.0,1.11,0.01,0.13,0,*4B
1507716500.2,53302,11.13,73876.8,1.11,-0.07,0.01,0,*50
1507716501.38,53303,11.13,73876.8,1.11,0.05,0.05,0,*7A
1507716502.54,53304,11.13,73876.5,1.11,0.01,0.05,0,*79
1507716503.71,53305,11.19,73878.3,1.11,0.01,0.05,0,*78
1507716504.88,53306,11.13,73870.0,1.11,0.05,0.05,0,*7F
1507716506.04,53307,11.13,73878.0,1.11,0.01,0.05,0,*7A
1507716507.23,53308,11.19,73880.3,1.13,0.01,0.05,0,*77
1507716508.43,53309,11.13,73872.3,1.13,0.05,0.05,0,*72
1507716509.62,53310,11.13,73870.8,1.13,0.01,0.05,0,*7E
1507716510.81,53311,11.19,73870.3,1.13,0.01,0.05,0,*7F
1507716512.01,53312,11.19,73870.5,1.13,0.01,0.05,0,*7C
1507716513.21,53313,11.19,73866.5,1.13,-0.07,0.05,0,*56
1507716514.4,53314,11.19,73866.3,1.13,0.01,0.05,0,*7A
1507716515.59,53315,11.13,73868.5,1.13,0.05,0.01,0,*7B
1507716516.77,53316,11.13,73860.3,1.15,0.05,0.05,0,*7A
1507716517.96,53317,11.13,73864.0,1.13,0.01,0.05,0,*79